Vorticity
4 4 6 7 5 5 6 5 4 5 5 5 6 7 6 7 7 6 5 6 6 9
13 12 9 7 7 7 7 6 7 7 7 7 7 6 6 7 8 10 10 13 14 16
11 8 8 9 8 8 8 8 8 7 7 7 8 7 6 9 12 12 16 15 16 21
10 12 9 9 9 8 8 7 6 6 8 9 11 12 11 12 13 16 16 15 20 22
6 11 8 7 8 8 7 6 5 8 10 11 12 14 13 13 14 15 15 18 21 21
8 8 8 8 7 6 6 7 9 9 11 11 12 13 14 13 13 14 17 18 17 17
8 8 7 6 6 6 7 8 10 12 12 13 12 11 10 12 13 14 14 16 18 17
8 5 6 5 6 8 8 10 11 10 11 10 11 10 11 12 12 12 14 14 16 18
6 6 5 8 10 10 9 8 10 11 10 10 10 10 11 10 10 12 14 15 14 16
6 8 9 9 9 9 9 9 10 11 10 10 10 9 10 10 11 14 15 16 14 15
9 10 9 9 10 10 10 9 10 10 11 10 10 10 10 11 13 14 15 15 14 14
9 10 11 11 11 11 10 11 11 10 10 10 10 10 11 13 14 16 16 15 15 12
10 9 11 11 11 13 12 12 11 11 10 10 12 12 14 14 14 18 16 15 14 10
11 13 14 13 13 13 12 13 12 11 11 12 13 15 16 18 17 16 15 14 13 12
Height
5639 5637 5635 5632 5630 5627 5623 5620 5617 5613 5610 5608 5606 5604 5601 5597 5594 5591 5589 5585 5582 5581
5618 5616 5613 5611 5608 5605 5601 5598 5594 5591 5588 5586 5583 5580 5575 5570 5567 5564 5561 5557 5554 5552
5598 5595 5593 5589 5586 5583 5580 5577 5573 5570 5567 5563 5558 5554 5549 5544 5541 5537 5533 5530 5528 5524
5578 5575 5572 5569 5565 5562 5558 5554 5551 5546 5542 5536 5531 5526 5522 5518 5514 5511 5508 5504 5503 5498
5558 5555 5551 5548 5543 5539 5535 5531 5526 5521 5516 5509 5504 5499 5496 5492 5489 5487 5484 5481 5476 5473
5537 5533 5529 5525 5521 5516 5511 5506 5501 5495 5489 5484 5478 5475 5471 5469 5466 5463 5460 5455 5452 5450
5517 5512 5508 5504 5499 5493 5489 5483 5478 5472 5466 5461 5456 5452 5449 5446 5444 5440 5436 5433 5429 5425
5497 5493 5488 5482 5477 5472 5466 5461 5456 5450 5444 5439 5434 5430 5426 5423 5421 5418 5415 5412 5409 5405
5476 5472 5466 5461 5455 5449 5443 5438 5434 5428 5423 5419 5414 5408 5403 5397 5397 5396 5396 5394 5392 5389
5455 5450 5444 5438 5432 5426 5421 5415 5411 5406 5401 5398 5393 5386 5381 5377 5375 5376 5375 5374 5372 5371
5432 5427 5421 5415 5409 5403 5398 5393 5388 5384 5379 5375 5373 5366 5361 5357 5354 5354 5354 5353 5352 5351
5409 5404 5398 5391 5385 5379 5374 5369 5364 5360 5356 5352 5352 5344 5340 5334 5333 5333 5334 5334 5333 5332
5385 5379 5373 5366 5361 5355 5348 5344 5340 5337 5332 5328 5327 5323 5318 5313 5311 5313 5313 5315 5315 5315
5360 5354 5347 5342 5335 5329 5324 5319 5315 5312 5310 5305 5301 5301 5296 5293 5291 5291 5293 5295 5298 5298